Regional Weather Roundup
Issued by NWS

Home | Current Version | Previous Version | Graphics & Text | Print | Product List | Glossary Off
Versions: 1 2 3 4 5 6 7 8 9 10 11 12 13 14 15 16 17 18 19 20 21 22 23 24 25 26 27 28 29 30 31 32 33 34 35 36 37 38 39 40 41 42 43 44 45 46 47 48 49 50

000
ASUS43 KLSX 250557
RWRMO

WEATHER SUMMARY FOR MISSOURI
NATIONAL WEATHER SERVICE SPRINGFIELD MO
1200 AM CST SUN FEB 25 2018

NOTE: "FAIR" INDICATES FEW OR NO CLOUDS BELOW 12,000 FEET WITH NO
       SIGNIFICANT WEATHER AND/OR OBSTRUCTIONS TO VISIBILITY.
       CURRENT SKY AND/OR WEATHER CONDITIONS ARE NOT AVAILABLE FOR
       CHILLICOTHE AND FARMINGTON.

MOZ001>031-035>038-043-044-053-054-250700-
...NORTHERN AND WESTERN MISSOURI...

CITY           SKY/WX    TMP DP  RH WIND       PRES   REMARKS
KANSAS CTY INT CLEAR     31  28  89 SW12      29.91R WCI  22
6HR MIN TEMP:  31; 6HR MAX TEMP:  34;

LEE`S SUMMIT   CLEAR     32  29  88 SW12      29.92R WCI  23
6HR MIN TEMP:  32; 6HR MAX TEMP:  38;

ST JOSEPH      CLEAR     31  28  89 W8        29.90R WCI  23
6HR MIN TEMP:  30; 6HR MAX TEMP:  33;

CHILLICOTHE      N/A     32  27  81 SW6       29.87R WCI  26
6HR MIN TEMP:  32; 6HR MAX TEMP:  38;

KIRKSVILLE     PTCLDY    32  28  86 W13G25    29.82R WCI  22

$$
MOZ066>068-077>081-088>096-101>105-250700-
...SOUTHWEST MISSOURI...

CITY           SKY/WX    TMP DP  RH WIND       PRES   REMARKS
SPRINGFIELD    CLEAR     36  33  89 W7        29.98R
6HR MIN TEMP:  36; 6HR MAX TEMP:  48; 6HR PCP: TRACE;

JOPLIN         CLEAR     32  31  96 S8        30.01R WCI  25
6HR MIN TEMP:  32; 6HR MAX TEMP:  43;


$$
MOZ032>034-039>042-045>050-055>058-069>072-250700-
...CENTRAL MISSOURI...

CITY           SKY/WX    TMP DP  RH WIND       PRES   REMARKS
COLUMBIA       MOCLDY    36  30  80 W20G28    29.91R WCI  25
JEFFERSON CITY CLOUDY    38  30  73 W16G29    29.94R WCI  29
6HR MIN TEMP:  38; 6HR MAX TEMP:  52; 6HR PCP:  0.02;

ROLLA          CLOUDY    37  32  82 W21G32    29.93R WCI  26
6HR MIN TEMP:  37; 6HR MAX TEMP:  54; 6HR PCP: TRACE;

SEDALIA        CLEAR     35  31  85 SW9       29.94S WCI  28
6HR MIN TEMP:  35; 6HR MAX TEMP:  45; 6HR PCP:  0.01;

WARRENSBURG    CLEAR     32  30  93 SW9       29.94S WCI  24

$$
MOZ051-052-059>065-250700-
...EAST CENTRAL MISSOURI...

CITY           SKY/WX    TMP DP  RH WIND       PRES   REMARKS
ST LOUIS INTL  CLOUDY    42  35  76 W28G35    29.86R
6HR MIN TEMP:  42; 6HR MAX TEMP:  55; 6HR PCP:  0.01;


$$
MOZ072>076-082>087-097>100-106>115-250700-
...SOUTH CENTRAL AND SOUTHEAST MISSOURI...

CITY           SKY/WX    TMP DP  RH WIND       PRES   REMARKS
CAPE GIRARDEAU FAIR      56  47  71 W29G39    29.83R
6HR MIN TEMP:  56; 6HR MAX TEMP:  64; 6HR PCP:  0.71;

POPLAR BLUFF   FAIR      52  42  69 W15G25    29.91R
6HR MIN TEMP:  52; 6HR MAX TEMP:  63; 6HR PCP:  0.07;

WEST PLAINS    CLOUDY    41  34  76 NW13G22   29.96R
6HR MIN TEMP:  41; 6HR MAX TEMP:  57;


$$



USA.gov is the U.S. government's official web portal to all federal, state and local government web resources and services.